ZIYUAN 3-2 (ZY 3-2)

Last updated on Thu Jul 03 2025 00:02:30 GMT+0000 (Coordinated Universal Time)

1 41556U 16033A 25183.60004600 .00004928 00000+0 22344-3 0 9999 2 41556 97.4187 260.3097 0011981 92.6826 267.5781 15.21233132504838
UTC large
Height (km)
Speed (km/s)
/
Latitude / Longitude
Inclination (degrees)
Orbital Period (minutes)
Azimuth
Elevation
Range (km)
Doppler Factor

Next 0 passes for location: London (51.5072 / 0.1276)

Sorry there are no passes over London.